Вернуться в каталог

ORBCOMM FM 2

АктивенСвязьVLEO
NORAD 23546·PAYLOAD·🇺🇸 United States

Запущен Apr 3, 1995 с Vandenberg Space Force Base

Loading…

Ближайшие Пролёты (ближайшие 24 часа)

TLE

СвежийSource: Space-Track

Эпоха: Sep 14, 2026, 15:25 UTC

1 23546U 95017B   26257.64236795  .00007388  00000-0  60714-3 0  9993
2 23546  69.9630  30.6717 0005752 323.8686  36.2084 14.99526114680104

Отслеживайте ORBCOMM FM 2 в реальном времени с AllMySat

Download on the App Store